EW4169 Weather Reports


Display with metric or nautical units.
time (UTC)temp
F
wind
direction
speed
MPH
gust
MPH
rain 1hr
in
rain 24hr
in
rain mn
in
humidity
%
barometer
mb
20260904160020 83 259 0.0 1.0 0.00 1.26 1.26 74 1012.2
20260904154539 83 264 0.0 0.0 0.00 1.26 1.26 73 1012.0
20260904153022 83 263 0.0 3.0 0.00 1.26 1.26 75 1012.1
20260904151557 82 286 0.0 3.0 0.00 1.26 1.26 78 1012.0
20260904150031 81 264 0.0 0.0 0.00 1.26 1.26 77 1012.2
20260904144537 81 265 0.0 3.0 0.00 1.26 1.26 80 1012.2
20260904143015 80 277 0.0 0.0 0.00 1.26 1.26 81 1012.3
20260904141537 80 265 1.0 4.0 0.00 1.26 1.26 81 1012.1
20260904140104 79 273 0.0 2.0 0.00 1.26 1.26 85 1011.9
20260904134517 78 273 0.0 4.0 0.00 1.26 1.26 87 1011.8
20260904133101 77 259 0.0 3.0 0.00 1.26 1.26 89 1012.1
20260904131513 76 263 0.0 3.0 0.00 1.26 1.26 90 1012.0
20260904130050 76 258 0.0 2.0 0.00 1.26 1.26 88 1011.9
20260904124523 75 245 0.0 0.0 0.00 1.26 1.26 88 1011.9
20260904123044 74 72 0.0 0.0 0.00 1.26 1.26 89 1012.0
20260904121523 74 72 0.0 0.0 0.00 1.26 1.26 89 1012.0
20260904120051 73 72 0.0 0.0 0.00 1.26 1.26 89 1012.0
20260904114513 73 256 0.0 0.0 0.00 1.26 1.26 89 1011.9
20260904113053 72 256 0.0 0.0 0.00 1.26 1.26 89 1012.1
20260904111534 72 257 0.0 2.0 0.00 1.26 1.26 89 1011.7
20260904110055 72 262 0.0 0.0 0.00 1.26 1.26 89 1011.7
20260904104515 72 262 0.0 0.0 0.00 1.26 1.26 89 1011.2
20260904103044 72 262 0.0 0.0 0.00 1.26 1.26 89 1011.1
20260904101521 72 262 0.0 0.0 0.00 1.26 1.26 89 1011.2
20260904100046 72 262 0.0 0.0 0.00 1.26 1.26 89 1011.3
20260904094515 72 262 0.0 0.0 0.00 1.26 1.26 89 1011.1
20260904093054 72 262 0.0 0.0 0.00 1.26 1.26 89 1011.2
20260904091515 72 262 0.0 0.0 0.00 1.26 1.26 89 1011.1
20260904090041 72 262 0.0 0.0 0.00 1.45 1.26 89 1011.1
20260904084520 72 262 0.0 0.0 0.00 1.45 1.26 89 1011.1
20260904083047 72 262 0.0 0.0 0.00 1.45 1.26 89 1011.3
20260904081533 72 262 0.0 0.0 0.01 1.45 1.26 89 1011.6
20260904080054 72 262 0.0 0.0 0.06 1.45 1.26 89 1011.9
20260904074515 72 262 0.0 0.0 0.12 1.45 1.26 89 1012.1
20260904073058 72 262 0.0 0.0 0.16 1.45 1.26 89 1012.1
20260904071535 72 262 0.0 0.0 0.19 1.44 1.25 89 1012.2
20260904070055 72 262 0.0 0.0 0.34 1.39 1.20 89 1012.6
20260904064537 72 262 0.0 0.0 1.05 1.33 1.13 89 1012.9
20260904063105 72 262 0.0 0.0 1.10 1.29 1.10 90 1013.0
20260904061539 72 262 0.0 5.0 1.06 1.25 1.06 90 1014.0
20260904060103 73 265 0.0 9.0 0.85 1.04 0.87 91 1015.0
20260904054540 77 275 5.0 10.0 0.09 0.28 0.11 91 1013.9
20260904053057 78 266 0.0 0.0 0.00 0.19 0.00 89 1011.7
20260904051551 78 266 0.0 0.0 0.00 0.19 0.00 90 1011.4
20260904050058 78 266 0.0 0.0 0.00 0.19 0.00 90 1011.5
20260904050005 78 266 0.0 0.0 0.00 0.19 0.00 90 1011.5
20260904044543 77 266 0.0 0.0 0.00 0.19 0.00 90 1012.0
20260904043011 78 266 0.0 0.0 0.00 0.19 0.00 90 1011.6
20260904041549 78 266 0.0 0.0 0.00 0.19 0.00 90 1011.4
20260904040020 78 266 0.0 0.0 0.00 0.19 0.19 90 1011.9
20260904034529 78 266 0.0 0.0 0.00 0.19 0.19 91 1012.2
20260904033007 78 266 0.0 0.0 0.00 0.19 0.19 91 1012.5
20260904031539 78 266 0.0 0.0 0.00 0.19 0.19 91 1012.6
20260904030035 78 266 0.0 0.0 0.00 0.19 0.19 91 1012.6
20260904024559 78 266 0.0 0.0 0.00 0.19 0.19 91 1012.5
20260904024501 78 266 0.0 0.0 0.00 0.19 0.19 91 1012.4
20260904023041 78 266 0.0 0.0 0.00 0.19 0.19 91 1012.3
20260904021520 78 266 0.0 0.0 0.00 0.19 0.19 91 1012.4
20260904020040 78 266 0.0 0.0 0.00 0.19 0.19 91 1012.5
20260904014511 79 266 0.0 0.0 0.00 0.19 0.19 91 1012.8
20260904013049 79 266 0.0 0.0 0.00 0.19 0.19 90 1012.9
20260904011520 79 266 0.0 0.0 0.00 0.19 0.19 90 1013.1
20260904010046 80 266 0.0 0.0 0.00 0.19 0.19 90 1013.0
20260904004557 80 266 0.0 0.0 0.00 0.19 0.19 89 1013.0
20260904003025 80 266 0.0 0.0 0.00 0.19 0.19 88 1012.8
20260904001555 81 266 0.0 0.0 0.00 0.19 0.19 88 1012.7
20260904000100 81 266 0.0 0.0 0.00 0.19 0.19 87 1012.4
20260903234515 81 266 0.0 0.0 0.00 0.19 0.19 87 1012.2
20260903233043 82 266 0.0 0.0 0.00 0.19 0.19 86 1012.4
20260903231522 82 266 0.0 0.0 0.00 0.19 0.19 85 1012.3
20260903230051 83 266 0.0 0.0 0.00 0.19 0.19 85 1012.4
20260903224515 83 266 0.0 0.0 0.00 0.19 0.19 84 1012.3
20260903223053 84 266 0.0 0.0 0.00 0.19 0.19 83 1012.1
20260903221536 84 266 0.0 0.0 0.00 0.19 0.19 81 1012.1
20260903220034 84 266 0.0 0.0 0.00 0.19 0.19 82 1012.2
20260903214524 85 266 0.0 0.0 0.00 0.19 0.19 81 1012.3
20260903213055 85 266 0.0 0.0 0.00 0.19 0.19 79 1012.1
20260903211535 85 266 0.0 0.0 0.00 0.19 0.19 76 1012.3
20260903210009 86 266 0.0 0.0 0.00 0.20 0.19 78 1012.3
20260903204507 86 266 0.0 0.0 0.00 0.20 0.19 78 1012.6
20260903191511 85 266 0.0 0.0 0.00 0.20 0.19 78 1013.4
20260903190046 84 262 0.0 0.0 0.00 0.20 0.19 81 1013.4
20260903184523 84 262 0.0 0.0 0.00 0.20 0.19 82 1013.6
20260903183003 84 262 0.0 0.0 0.00 0.20 0.19 81 1013.9
20260903181611 84 261 0.0 0.0 0.00 0.20 0.19 82 1014.1
20260903180053 84 261 0.0 0.0 0.00 0.20 0.19 82 1014.2